ANNABA/EL_MELLAH current weather conditions

sailwx.info

Wind from 220 at 4 knots

Air temperature 6.0° C
Visibility: greater than 4.3 NM
Dewpoint 4.0° C

Last reported at 2017-Jan-19 00:30 UTC.
Time now 2017-Jan-19 02:20 UTC

Location: N 36°50' E 007°49'.
View on Google Maps.

See reports from other nearby stations

  
Tides and Currents Weather Stations Pressure Air Temp Water Temp Dewpoint Dewpoint Depression Visibility Wind Speed Wind Dir Waves Ship Positions
date/time (UTC)wind fromknots sea level pressurealtimeterstation pressurevisibilityair tempwater tempwave heightnotes
2017-Jan-19 01:30 210 4 5.4 5.0
2017-Jan-19 01:00 210 4 4.3 6.0
2017-Jan-19 00:30 220 4 4.3 6.0
2017-Jan-19 00:00 240 8 4.3 5.0
2017-Jan-18 23:00 210 6 4.3 6.0
2017-Jan-18 22:30 210 6 4.3 6.0
2017-Jan-18 22:00 230 7 4.3 7.0
2017-Jan-18 21:30 230 6 4.3 7.0
2017-Jan-18 21:00 250 6 4.3 8.0
2017-Jan-18 20:30 250 6 4.3 8.0
2017-Jan-18 20:00 270 7 4.3 8.0 Light rain.
2017-Jan-18 19:30 260 9 5.4 8.0
2017-Jan-18 19:00 250 6 5.4 8.0
2017-Jan-18 18:30 260 11 5.4 8.0
2017-Jan-18 18:00 260 9 5.4 8.0
2017-Jan-18 17:30 260 9 5.4 8.0
2017-Jan-18 17:00 270 13 5.4 9.0
2017-Jan-18 16:30 260 12 5.4 9.0
2017-Jan-18 16:00 260 9 5.410.0
2017-Jan-18 15:30 270 12 5.410.0
2017-Jan-18 15:00 270 12 5.410.0
2017-Jan-18 14:30 260 13 5.411.0
2017-Jan-18 14:00 260 14 5.410.0
2017-Jan-18 13:30 260 13 5.410.0
2017-Jan-18 13:00 270 13 5.4 9.0
2017-Jan-18 12:30 260 14 5.4 9.0
2017-Jan-18 12:00 260 14 5.4 9.0
2017-Jan-18 11:30 260 15 5.4 8.0
2017-Jan-18 11:00 260 15 5.4 8.0
2017-Jan-18 10:30 290 17 5.4 8.0
2017-Jan-18 10:00 290 18 gusting 27 5.4 7.0
2017-Jan-18 09:30 260 19 5.4 6.0
2017-Jan-18 09:00 250 14 5.4 6.0
2017-Jan-18 08:30 250 13 5.4 6.0 Light rain.
2017-Jan-18 08:00 250 13 5.4 6.0
2017-Jan-18 07:30 250 15 5.4 6.0
2017-Jan-18 07:00 250 13 5.4 6.0
2017-Jan-18 06:30 240 9 4.3 6.0
2017-Jan-18 06:00 250 11 3.2 5.0
2017-Jan-18 05:30 260 13 4.3 5.0 Light rain.
2017-Jan-18 05:00 240 15 4.3 4.0
2017-Jan-18 04:30 250 13 4.3 5.0
2017-Jan-18 04:00 260 13 4.3 5.0
2017-Jan-18 03:30 260 15 4.3 5.0
2017-Jan-18 03:00 270 17 3.8 5.0
2017-Jan-18 02:30 260 15 4.3 5.0
2017-Jan-18 02:00 260 15 4.3 5.0
2017-Jan-18 01:30 270 13 4.3 5.0
2017-Jan-18 01:00 260 14 4.3 5.0
2017-Jan-18 00:30 250 14 3.2 5.0 Light rain.
2017-Jan-18 00:00 260 13 4.3 5.0
2017-Jan-17 23:00 240 13 4.3 4.0
2017-Jan-17 22:30 250 14 4.3 5.0
2017-Jan-17 21:00 250 9 2.7 5.0 Light rain.
2017-Jan-17 20:30 270 14 3.8 5.0
2017-Jan-17 20:00 260 17 4.3 5.0
2017-Jan-17 19:30 250 15 4.3 5.0
2017-Jan-17 19:00 240 14 3.8 4.0
2017-Jan-17 18:30 250 13 3.8 4.0
2017-Jan-17 18:00 250 18 3.8 4.0
2017-Jan-17 17:30 250 18 3.8 4.0 Rain.
2017-Jan-17 17:00 250 15 2.7 5.0 Rain.
2017-Jan-17 16:30 250 13 2.7 5.0 Light rain.
2017-Jan-17 16:00 270 17 2.7 5.0 Rain.
2017-Jan-17 15:30 250 13 3.8 5.0 Light rain.
2017-Jan-17 14:30 280 17 2.7 6.0 Rain.
2017-Jan-17 14:00 270 20 3.8 7.0
2017-Jan-17 13:00 270 15 3.8 9.0
2017-Jan-17 12:00 250 7 3.8 8.0
2017-Jan-17 11:00 280 15 2.7 6.0 Rain.
2017-Jan-17 10:00 240 12 0.4 6.0 Light rain.